Location: Morrinhos
(4.6333°S, 37.7333°W)
Time: 06:29:26
(UTC+00:00)

Daily predictions for brighter satellites

Satellite Brightness Start Highest point End
(mag) Time Altitude Azimuth Time Altitude Azimuth Time Altitude Azimuth
ARIANE 5 R/B 3.7 20:27:06 10° W 20:31:03 88° N 20:43:32 10° E
Cosmos 2233 Rocket 4.2 20:36:59 10° S 20:43:20 86° W 20:49:36 10° N
Cosmos 1844 4.3 20:41:12 10° S 20:46:26 35° ESE 20:51:36 10° NE
Hubble Space Telescope 3.4 20:49:24 10° SW 20:51:16 13° SSW 20:53:09 10° S
USA 215 3.4 20:46:09 10° SE 20:52:44 84° SW 20:59:16 10° NW
Cosmos 1844 Rocket 2.7 20:49:35 10° S 20:55:03 58° ESE 21:00:29 10° NNE
Cosmos 2298 Rocket 4.1 20:51:14 10° S 20:56:30 61° ESE 21:01:44 10° NNE
CZ-2C R/B 3.7 20:58:22 10° NE 21:02:49 24° ESE 21:07:15 10° SSE
CZ-2D R/B 3.7 21:04:03 10° SSE 21:07:40 38° E 21:11:16 10° N
SL-16 R/B 2.2 21:02:47 10° N 21:08:18 58° ENE 21:13:50 10° SSE
Cosmos 1939 Rocket 2.9 21:04:40 10° SSE 21:08:38 60° E 21:12:39 10° N
GPS 2-14 Rocket1 3.1 21:05:18 10° NW 21:08:52 42° NNE 21:11:20 18° E
Cosmos 2237 Rocket 4.1 21:05:25 10° NW 21:10:23 32° WSW 21:15:23 10° S
Sich 1 Rocket 3.5 21:07:43 10° S 21:12:09 85° E 21:16:35 10° N
Helios 1A Rocket 2.8 21:10:04 10° SSE 21:14:06 67° ENE 21:18:08 10° N
TSX-5 4.4 21:13:30 10° SSE 21:16:06 22° ESE 21:16:11 22° ESE
Cosmos 1674 Rocket 4.2 21:15:05 10° NNW 21:19:27 60° W 21:23:50 10° S
Cosmos 1975 Rocket 4.5 21:16:48 10° NE 21:18:50 18° ENE 21:18:50 18° ENE
BREEZE-M DEB (TANK) 4.4 21:21:30 10° WSW 21:23:04 15° SW 21:25:05 10° S
Atlas Centaur 2 2.5 21:17:42 10° WNW 21:24:40 74° SSW 21:28:58 17° SE
CSL-04 Rocket 4.5 21:21:03 10° SE 21:25:28 27° ENE 21:29:54 10° NNE
Meteor 1-12 Rocket 4.3 21:19:42 10° S 21:25:44 85° E 21:31:42 10° N
Cosmos 2150 Rocket 4.4 21:20:57 10° SSW 21:26:08 66° WNW 21:31:22 10° N
Okean 2 Rocket 3.0 21:25:54 10° S 21:30:26 85° E 21:34:57 10° N
Delta 2 Rocket 4.0 21:25:49 10° WNW 21:32:07 71° SSW 21:36:09 22° SE
Ariane H10+ 1.9 21:31:09 10° W 21:33:19 72° S 21:33:40 57° ESE
Cosmos 1125 Rocket 3.4 21:28:31 10° SSW 21:33:48 88° ESE 21:39:05 10° NNE
SWIFT 2.7 21:30:16 10° W 21:34:23 56° SSW 21:36:12 30° SE
NOSS 3-4 (A) 3.5 21:30:17 10° SSW 21:36:26 76° WNW 21:42:16 10° NNE
NOSS 3-4 (C) 3.5 21:30:24 10° SSW 21:36:33 78° WNW 21:42:23 10° NNE
Okean-O 2.6 21:32:48 10° S 21:37:14 83° WSW 21:41:39 10° NNW
Cosmos 2285 Rocket 3.9 21:31:31 10° S 21:37:48 75° ESE 21:44:04 10° NNE
Cosmos 1300 Rocket 3.7 21:34:09 10° S 21:38:30 75° W 21:42:50 10° N
Ariane H10 1.2 21:38:28 10° W 21:40:59 58° NNW 21:40:59 58° NNW
GPS 2-12 Rocket1 4.1 21:40:20 10° W 21:44:53 41° SSW 21:46:49 28° SSE
Delta 198 4.3 21:39:57 10° NW 21:45:41 50° NNE 21:46:55 42° ENE
YAOGAN 1 2.4 21:41:29 10° SSE 21:45:49 87° ENE 21:50:08 10° N
Cosmos 1464 Rocket 4.2 21:39:42 10° S 21:45:50 71° W 21:51:54 10° N
ARIANE 5 R/B 4.0 21:32:45 10° W 21:46:08 73° N 21:47:45 40° ENE
Milstar 3 3.5 21:40:44 10° SW 21:47:15 44° SSE 21:50:34 32° ESE
CZ-4 R/B 1.9 21:44:50 10° S 21:48:58 62° WSW 21:53:07 10° NNW
SL-8 R/B 4.0 21:46:38 10° SSW 21:51:11 47° SE 21:51:11 47° SE
Meteor 1-21 4.1 21:47:41 10° N 21:53:12 65° E 21:58:47 10° SSE
Ariane H10+ 3.9 21:51:37 10° NW 21:52:38 16° NNW 21:52:38 16° NNW
DMSP B5D2-2 3.9 21:50:09 10° NNE 21:55:25 82° ESE 22:00:41 10° S
Cosmos 2112 Rocket 3.9 21:50:43 10° N 21:55:51 59° ENE 21:56:21 56° ESE
H-2A R/B 3.1 21:58:51 28° NNE 21:58:51 28° NNE 22:01:17 10° N
ATLAS 2AS CENTAUR R/B 3.3 21:50:23 10° SSW 21:57:40 65° WNW 22:05:25 10° NNE
Cosmos 1680 Rocket 3.3 21:54:03 10° N 21:59:18 81° ENE 22:02:13 27° SSE
ARIANE 3 DEB 3.8 21:56:13 10° WNW 22:00:01 54° NNE 22:00:54 48° NE
Okean 2 4.2 21:58:01 10° NNW 22:02:00 50° W 22:06:01 10° S
Cosmos 158 Rocket 4.2 22:06:14 10° NNW 22:11:11 62° WSW 22:14:02 24° S
Ariane H10 3.9 22:09:10 10° W 22:12:14 86° S 22:12:17 85° SSE
Cosmos 1932 4.2 22:06:36 10° NNW 22:12:48 78° ENE 22:13:23 71° ESE
CZ-2C R/B 4.0 22:22:09 10° S 22:26:45 43° WSW 22:31:30 10° NNW
Cosmos 2278 Rocket 3.8 22:24:07 10° S 22:26:13 23° S 22:26:13 23° S
Gbstr 26 Del rocket 4.2 22:25:00 10° SW 22:30:26 59° NW 22:30:55 57° NNW
Ariane H10 4.0 22:35:32 10° WNW 22:44:33 39° NNW 22:44:33 39° NNW
ARIANE 5 R/B 4.5 22:59:46 10° W 23:48:45 60° W 23:48:45 60° W
